[[{"header":{"parameterUnit":"m.s-1","parameterCategory":1,"la1":30.2991,"la2":30.254,"lo1":-89.0895,"lo2":-89.0444,"dx":0.0017,"dy":0.0017,"nx":28,"ny":28,"refTime":"2023-01-22T03:00:00:Z","depth":0,"parameterNumber":2,"parameterNumberName":"U-component_of_WINDS"},"data":[0,0,0,0,0,0,0,0,0,0,0,0,0,0,0,0,0,0,0,0,0,0,0,0,0,0,0,0,0,0,0,0,0,0,0,0,0,0,0,0,0,0,0,0,0,0,0,0,0,0,0,0,0,0,0,0,0,0,3.0302,3.0304,0,3.0437,3.0439,3.044,3.0451,3.045,3.0449,3.0447,3.0585,3.059,3.0595,0,0,0,0,0,0,0,0,0,0,0,0,0,3.0056,3.0061,3.0302,3.0304,3.0306,3.0437,3.0439,3.044,3.0452,3.045,3.0448,3.0446,3.0583,3.0589,3.0595,0,0,0,0,0,0,0,0,0,0,0,0,0,3.0174,3.0062,3.0302,3.0327,3.0331,3.0436,3.0439,3.0441,3.0452,3.045,3.0448,3.0446,3.0581,3.0589,3.0596,3.0686,0,0,3.0619,3.0623,0,0,0,0,0,0,0,0,3.0167,3.0183,3.0322,3.0325,3.033,3.0425,3.0402,3.0523,3.0453,3.0406,3.0447,3.0445,3.0534,3.0545,3.0575,3.0693,3.0699,3.062,3.0625,3.0628,3.063,0,0,0,0,0,0,0,3.0159,3.0177,3.0356,3.0324,3.0329,3.0332,3.0346,3.0425,3.048,3.041,3.0411,3.0427,3.0535,3.0568,3.0578,3.0701,3.062,3.0626,3.0631,3.0634,3.0902,3.0904,0,0,0,0,0,0,3.0146,3.017,3.0351,3.036,3.0242,3.0338,3.0354,3.0397,3.048,3.049,3.0428,3.0427,3.0556,3.057,3.0583,3.0696,3.0628,3.0635,3.0639,3.0899,3.0902,3.0905,0,0,0,0,0,0,3.0141,3.0162,3.0346,3.0265,3.0289,3.0345,3.0392,3.0401,3.0433,3.0494,3.0504,3.0451,3.0555,3.0573,3.0661,3.0701,3.0638,3.0645,3.0896,3.09,3.0904,3.0921,0,0,0,0,0,0,3.0134,3.016,3.0194,3.0266,3.0293,3.0421,3.0395,3.0405,3.0446,3.0445,3.0518,3.0528,3.0554,3.065,3.0669,3.071,3.0651,3.0893,3.0898,3.0903,3.0917,3.0925,3.0932,0,0,0,0,0,3.0125,3.0193,3.0196,3.0218,3.0337,3.0423,3.0439,3.0468,3.0449,3.0484,3.0524,3.0525,3.0693,3.0659,3.068,3.0724,3.0891,3.0897,3.0902,3.0914,3.0923,3.0932,0,0,0,0,0,0,3.0124,3.0203,3.0207,3.0301,3.0355,3.0425,3.047,3.0477,3.0538,3.0535,3.0569,3.0585,3.0673,3.0707,3.0668,3.0817,3.079,3.08,3.0792,3.0801,3.0808,3.0799,3.0657,0,0,0,0,0,3.0135,3.0198,3.0264,3.034,3.0367,3.0414,3.0453,3.0471,3.0529,3.0552,3.0598,3.0654,3.072,3.0762,3.0826,3.0922,3.0939,3.0963,3.097,3.0976,3.0985,3.1041,3.1053,3.0924,3.0924,3.0924,0,0,3.0158,3.0209,3.0246,3.0341,3.0386,3.0451,3.0433,3.0503,3.0552,3.0562,3.0649,3.0685,3.075,3.0844,3.0887,3.0875,3.1024,3.0984,3.0988,3.0994,3.1048,3.106,3.1071,3.0928,3.0928,3.0927,0,0,3.0233,3.0277,3.0347,3.0392,3.046,3.0491,3.0508,3.0577,3.0602,3.069,3.07,3.0759,3.0871,3.0918,3.0956,3.1052,3.1056,3.1071,3.111,3.1164,3.1174,3.1183,3.1219,3.1231,3.108,3.108,3.108,0,3.0253,3.0352,3.0382,3.0452,3.0494,3.0507,3.0579,3.0621,3.0706,3.0735,3.0721,3.0863,3.0908,3.1013,3.1037,3.1067,3.1089,3.1063,3.117,3.1179,3.1188,3.1223,3.1236,3.1081,3.1081,3.1081,3.1081,0,3.0374,3.0442,3.049,3.0573,3.062,3.0691,3.0732,3.0777,3.0791,3.0824,3.0915,3.0969,3.1045,3.1071,3.1086,3.118,3.1171,3.1163,3.1136,3.1202,3.1235,3.1248,3.1083,3.1083,3.1082,3.1082,0,0,3.0452,3.0552,3.0569,3.0608,3.0685,3.0738,3.081,3.0884,3.0923,3.0981,3.1043,3.1139,3.1133,3.1176,3.1196,3.1243,3.1318,3.123,3.1232,3.1246,3.1428,3.1434,3.1449,3.1321,3.1324,3.1326,3.1423,0,3.0537,3.0665,3.0695,3.0805,3.0869,3.0884,3.0946,3.1001,3.1034,3.1094,3.1131,3.1199,3.1184,3.1211,3.1258,3.1299,3.1355,3.1292,3.1381,3.1383,3.1365,3.1466,3.1473,3.1562,3.1436,3.1438,3.144,0,3.0654,3.0716,3.0832,3.0903,3.0931,3.0986,3.1059,3.1115,3.1178,3.1199,3.1249,3.1265,3.1341,3.131,3.1417,3.1373,3.1411,3.1437,3.1441,3.1451,3.1416,3.1481,3.1591,3.1604,3.146,3.1458,3.1457,0,3.0701,3.0814,3.0899,3.0931,3.1015,3.1054,3.1091,3.1151,3.1195,3.1258,3.1287,3.1358,3.1397,3.1452,3.1488,3.1462,3.1592,3.1564,3.1613,3.1612,3.164,3.1638,3.1759,3.1663,3.1662,3.1662,3.1662,0,3.0794,3.0865,3.0922,3.0974,3.1055,3.1089,3.1168,3.1205,3.1259,3.132,3.1336,3.1392,3.1435,3.1498,3.1525,3.1611,3.1628,3.1648,3.1655,3.1647,3.1645,3.1673,3.1669,3.1666,3.1665,3.1664,3.1664,0,3.0861,3.0901,3.0995,3.1067,3.1087,3.1143,3.1205,3.1257,3.1291,3.1368,3.1388,3.1441,3.1517,3.1557,3.165,3.1669,3.1765,3.1768,3.1744,3.1748,3.1795,3.1791,3.194,3.1962,3.1849,3.185,3.1851,0,3.0918,3.0973,3.1052,3.1094,3.1131,3.1198,3.1243,3.1279,3.1326,3.1403,3.1446,3.1522,3.1585,3.1704,3.1752,3.1824,3.183,3.1877,3.1841,3.1832,3.1833,3.1829,3.1836,3.1883,3.1884,3.1885,3.1886,0,3.1016,3.1034,3.1098,3.117,3.1224,3.1282,3.134,3.1373,3.1419,3.1471,3.1548,3.1597,3.1693,3.1769,3.1846,3.1884,3.1894,3.1897,3.1913,3.1906,3.1891,3.1902,3.1763,3.1894,3.1893,3.1892,3.1892,3.1892,3.1081,3.1132,3.1195,3.1267,3.1314,3.1369,3.1422,3.1463,3.1527,3.1609,3.1626,3.1709,3.1772,3.1876,3.1917,3.1982,3.1973,3.1995,3.2,3.2006,3.2009,3.1879,3.1996,3.1996,3.1995,3.1995,3.1995,0,3.1181,3.1223,3.1289,3.137,3.1427,3.143,3.1495,3.1542,3.1614,3.1672,3.1734,3.1824,3.1898,3.1952,3.2028,3.207,3.2077,3.2089,3.2087,3.2096,3.2012,3.1991,3.2083,3.2083,3.2083,3.2083,3.2083,3.2083,3.124,3.1327,3.1352,3.1463,3.1505,3.1585,3.1622,3.1673,3.1719,3.1819,3.1881,3.1915,3.1973,3.2053,3.2122,3.2136,3.2164,3.2177,3.2191,3.2111,3.2102,3.2093,3.2074,3.2182,3.2182,3.2271,3.2272,3.2273]},{"header":{"parameterUnit":"m.s-1","parameterCategory":1,"la1":30.2991,"la2":30.254,"lo1":-89.0895,"lo2":-89.0444,"dx":0.0017,"dy":0.0017,"nx":28,"ny":28,"refTime":"2023-01-22T03:00:00:Z","depth":0,"parameterNumber":3,"parameterNumberName":"V-component_of_WINDS"},"data":[0,0,0,0,0,0,0,0,0,0,0,0,0,0,0,0,0,0,0,0,0,0,0,0,0,0,0,0,0,0,0,0,0,0,0,0,0,0,0,0,0,0,0,0,0,0,0,0,0,0,0,0,0,0,0,0,0,0,-4.3394,-4.3395,0,-4.3468,-4.3469,-4.347,-4.3427,-4.3425,-4.3423,-4.3421,-4.3496,-4.3499,-4.3503,0,0,0,0,0,0,0,0,0,0,0,0,0,-4.3218,-4.3222,-4.3394,-4.3395,-4.3396,-4.3468,-4.3469,-4.347,-4.3428,-4.3425,-4.3423,-4.342,-4.3494,-4.3499,-4.3504,0,0,0,0,0,0,0,0,0,0,0,0,0,-4.3293,-4.3223,-4.3394,-4.3384,-4.3384,-4.3468,-4.3469,-4.347,-4.3428,-4.3425,-4.3422,-4.3419,-4.3493,-4.3498,-4.3504,-4.3602,0,0,-4.3522,-4.3525,0,0,0,0,0,0,0,0,-4.3289,-4.33,-4.3384,-4.3385,-4.3385,-4.3435,-4.3434,-4.3514,-4.3429,-4.3411,-4.3421,-4.3418,-4.3478,-4.3485,-4.3505,-4.3606,-4.3609,-4.3523,-4.3526,-4.3529,-4.353,0,0,0,0,0,0,0,-4.3284,-4.3297,-4.3423,-4.3386,-4.3386,-4.3376,-4.3383,-4.3449,-4.3461,-4.3413,-4.341,-4.3419,-4.3477,-4.35,-4.3507,-4.361,-4.3522,-4.3528,-4.3531,-4.3534,-4.3796,-4.3799,0,0,0,0,0,0,-4.328,-4.3292,-4.3421,-4.3425,-4.3328,-4.3381,-4.339,-4.3422,-4.346,-4.3463,-4.3422,-4.3417,-4.3491,-4.35,-4.3509,-4.3627,-4.3529,-4.3534,-4.3537,-4.3793,-4.3797,-4.3801,0,0,0,0,0,0,-4.3276,-4.3291,-4.3418,-4.3358,-4.3374,-4.3388,-4.3425,-4.3425,-4.3447,-4.3467,-4.3469,-4.3442,-4.3489,-4.3501,-4.358,-4.3629,-4.3537,-4.3542,-4.3789,-4.3794,-4.3799,-4.3863,0,0,0,0,0,0,-4.3271,-4.329,-4.3327,-4.3359,-4.3377,-4.3487,-4.3428,-4.3429,-4.3458,-4.3452,-4.3487,-4.349,-4.3488,-4.3571,-4.3586,-4.3635,-4.3547,-4.3784,-4.3791,-4.3797,-4.3856,-4.3869,-4.3881,0,0,0,0,0,-4.3265,-4.3341,-4.3329,-4.3345,-4.3423,-4.349,-4.35,-4.3496,-4.3462,-4.3499,-4.3512,-4.3488,-4.3622,-4.358,-4.3595,-4.3648,-4.3781,-4.3789,-4.3797,-4.3851,-4.3867,-4.388,0,0,0,0,0,0,-4.3313,-4.3345,-4.3332,-4.3421,-4.3453,-4.3483,-4.3529,-4.3513,-4.3555,-4.3548,-4.3542,-4.3551,-4.3633,-4.3648,-4.3601,-4.3745,-4.3696,-4.3707,-4.3732,-4.3747,-4.3759,-4.3753,-4.3551,0,0,0,0,0,-4.3334,-4.3386,-4.3411,-4.3488,-4.3505,-4.3515,-4.3543,-4.3539,-4.3571,-4.3584,-4.3603,-4.3635,-4.3685,-4.3717,-4.3764,-4.3859,-4.3866,-4.3903,-4.3915,-4.3925,-4.3935,-4.3988,-4.4004,-4.3826,-4.3826,-4.3826,0,0,-4.3378,-4.3402,-4.3435,-4.3498,-4.3522,-4.3576,-4.3526,-4.3584,-4.3624,-4.3593,-4.3668,-4.3684,-4.372,-4.3808,-4.3848,-4.3824,-4.3986,-4.3935,-4.3943,-4.3947,-4.3997,-4.4014,-4.4029,-4.3832,-4.3831,-4.383,0,0,-4.3485,-4.3508,-4.3575,-4.3601,-4.3639,-4.3646,-4.3663,-4.3695,-4.3704,-4.3781,-4.3759,-4.3807,-4.3892,-4.3919,-4.3944,-4.4066,-4.4045,-4.4081,-4.4144,-4.4196,-4.421,-4.4222,-4.4266,-4.4281,-4.4091,-4.4091,-4.4091,0,-4.3534,-4.3614,-4.3611,-4.3672,-4.3701,-4.3677,-4.3745,-4.3771,-4.3822,-4.3843,-4.3815,-4.3923,-4.3946,-4.404,-4.407,-4.4091,-4.411,-4.4076,-4.4208,-4.4221,-4.4232,-4.4273,-4.429,-4.4095,-4.4094,-4.4094,-4.4094,0,-4.3673,-4.3729,-4.3778,-4.383,-4.3865,-4.3929,-4.3936,-4.3972,-4.3966,-4.3976,-4.4055,-4.4082,-4.4134,-4.4157,-4.415,-4.4251,-4.4235,-4.4209,-4.4158,-4.4253,-4.4292,-4.4308,-4.4101,-4.4099,-4.4098,-4.4097,0,0,-4.3807,-4.386,-4.3878,-4.3902,-4.3944,-4.3987,-4.4052,-4.4104,-4.4135,-4.4172,-4.4226,-4.43,-4.4277,-4.4305,-4.4302,-4.4348,-4.4443,-4.4315,-4.4316,-4.4338,-4.4557,-4.4576,-4.4594,-4.4431,-4.4434,-4.4437,-4.4554,0,-4.3916,-4.4028,-4.403,-4.4133,-4.4185,-4.4166,-4.4222,-4.4255,-4.4267,-4.4314,-4.4327,-4.438,-4.4345,-4.4362,-4.4407,-4.4422,-4.4487,-4.4414,-4.4481,-4.4483,-4.447,-4.4614,-4.4634,-4.4743,-4.4569,-4.4572,-4.4573,0,-4.4057,-4.4101,-4.4209,-4.4246,-4.4269,-4.4319,-4.4368,-4.4413,-4.445,-4.4456,-4.449,-4.4481,-4.4548,-4.4498,-4.459,-4.454,-4.4568,-4.4581,-4.4585,-4.4589,-4.4532,-4.4622,-4.4777,-4.4793,-4.4597,-4.4595,-4.4594,0,-4.4144,-4.423,-4.4306,-4.4328,-4.4373,-4.4409,-4.443,-4.4464,-4.4496,-4.454,-4.4561,-4.4612,-4.4639,-4.4679,-4.4684,-4.4647,-4.4777,-4.4727,-4.4783,-4.4783,-4.4809,-4.4807,-4.497,-4.483,-4.483,-4.483,-4.4829,0,-4.4264,-4.4331,-4.4346,-4.4393,-4.4469,-4.4471,-4.4546,-4.4563,-4.4595,-4.4645,-4.4632,-4.468,-4.4685,-4.4735,-4.474,-4.4815,-4.4828,-4.4835,-4.4835,-4.4835,-4.4834,-4.4852,-4.4844,-4.4834,-4.4833,-4.4832,-4.4831,0,-4.4372,-4.4385,-4.4467,-4.4505,-4.4516,-4.457,-4.4602,-4.4647,-4.466,-4.4725,-4.474,-4.4759,-4.4818,-4.4828,-4.4896,-4.4899,-4.499,-4.4983,-4.4977,-4.4976,-4.5031,-4.5025,-4.521,-4.5234,-4.508,-4.5081,-4.5082,0,-4.4446,-4.4498,-4.4542,-4.4576,-4.4598,-4.4652,-4.4686,-4.4692,-4.4727,-4.4776,-4.4816,-4.4873,-4.4918,-4.5012,-4.5033,-4.5086,-4.5079,-4.514,-4.5087,-4.5086,-4.5079,-4.5075,-4.5081,-4.515,-4.5151,-4.5153,-4.5154,0,-4.4577,-4.4582,-4.4631,-4.4684,-4.4725,-4.4766,-4.4805,-4.4834,-4.4845,-4.4886,-4.4946,-4.4982,-4.5053,-4.511,-4.5163,-4.5184,-4.5171,-4.5171,-4.5187,-4.5186,-4.5181,-4.5184,-4.5004,-4.5166,-4.5165,-4.5164,-4.5163,-4.5163,-4.467,-4.4716,-4.4755,-4.4811,-4.4842,-4.4879,-4.4924,-4.4944,-4.4995,-4.5053,-4.5054,-4.512,-4.5159,-4.5229,-4.5255,-4.5307,-4.5287,-4.531,-4.5316,-4.5321,-4.5326,-4.5175,-4.5317,-4.5317,-4.5316,-4.5316,-4.5316,0,-4.4799,-4.4825,-4.4876,-4.4933,-4.4978,-4.4964,-4.5008,-4.5046,-4.5104,-4.5142,-4.5188,-4.5259,-4.5315,-4.5342,-4.5397,-4.5434,-4.543,-4.5449,-4.5445,-4.545,-4.534,-4.5321,-4.5451,-4.5451,-4.5451,-4.5451,-4.5451,-4.5451,-4.4872,-4.4948,-4.4959,-4.5052,-4.5077,-4.5142,-4.5168,-4.5204,-4.5234,-4.5313,-4.5361,-4.5378,-4.5413,-4.5471,-4.5523,-4.553,-4.555,-4.5572,-4.5575,-4.5472,-4.5458,-4.5444,-4.5426,-4.5577,-4.5577,-4.5681,-4.5682,-4.5683]}]]